{"data":{"norad_id":63496,"epoch":"2026-05-25T00:04:46.930080Z","epoch_age_seconds":71263,"freshness":"FRESH","line1":"1 63496U 25071D   26145.00332095  .00018317  00000+0  62879-3 0  9997","line2":"2 63496  53.1591 145.4703 0001591  92.4430 267.6753 15.30212598 64390","mean_motion":15.30212598,"eccentricity":0.0001591,"inclination_deg":53.1591,"raan_deg":145.4703,"arg_perigee_deg":92.443,"mean_anomaly_deg":267.6753,"bstar":0.00062879,"rev_number":6439,"period_min":94.104570951912,"perigee_km":474.08709199052,"apogee_km":476.26781664988,"semimajor_km":6853.3144543202,"source":"CELESTRAK","updated_at":"2026-05-25T13:38:20.012093Z"}}